Location: Deneb Observatory
(47.2267°N, 100.4953°W)
Time: 10:24:43
(UTC-05:00)

Amateur Radio Satellites - All Passes

Search period start: 31 July 2015 09:54
Search period end: 01 August 2015 09:54
Location: Deneb Observatory, 47.2267°N, 100.4953°W

Satellite Date Start Highest point End Downlink Frequencies (MHz)
Time Altitude Azimuth
AAUSAT CUBESAT 2 31 Jul 09:59:44 10:03:04 23° 92° (E) 10:06:26 437.432
BRITE-PL 31 Jul 10:00:55 10:05:10 61° 286° (WNW) 10:09:41 437.365/2234.400
GONETS M04 31 Jul 10:02:24 10:08:11 18° 308° (NW) 10:13:36
M-CUBED/EXP-1 PRIME 31 Jul 10:04:00 10:08:05 86° 253° (WSW) 10:12:32 437.505
PCSat 31 Jul 10:06:44 10:11:39 37° 114° (ESE) 10:16:39 145.827
DOVE 4 31 Jul 10:10:25 10:14:56 66° 102° (ESE) 10:19:43 437.250
AIST 2 31 Jul 10:14:33 10:18:44 59° 49° (NE) 10:22:50 435.215
GOMX 1 31 Jul 10:16:57 10:21:22 70° 286° (WNW) 10:26:05 467.674
Cubesat XI-IV 31 Jul 10:23:40 10:25:26 11° 307° (NW) 10:26:57 437.490
Cosmos 2499 31 Jul 10:26:22 10:33:16 38° 293° (WNW) 10:40:38 435.465 / 435.565
BEESAT 2 31 Jul 10:27:08 10:30:40 28° 243° (WSW) 10:34:07 435.950
CINEMA 3 31 Jul 10:27:25 10:31:54 46° 99° (E) 10:36:33 145.822/145.860
ZACube-1 31 Jul 10:31:19 10:34:03 16° 88° (E) 10:37:00 437.345
RS-15 31 Jul 10:33:35 10:40:28 17° 262° (W) 10:46:33 29.354- 29.394
AUBIESAT-1 31 Jul 10:34:37 10:38:35 48° 256° (WSW) 10:42:52 437.475
UNISAT 6 31 Jul 10:41:04 10:45:02 36° 68° (ENE) 10:49:09 437.425
HO-68 31 Jul 10:41:08 10:48:23 84° 107° (ESE) 10:55:35 435.675
POLYITAN 1 31 Jul 10:49:14 10:52:08 19° 63° (ENE) 10:55:08 437.675
UWE-3 31 Jul 10:51:56 10:56:02 32° 95° (E) 11:00:14 435.000/436.395/437.385
COMPASS 1 31 Jul 10:52:15 10:56:32 87° 278° (W) 11:00:45 437.405
FUNcube-1 31 Jul 10:52:47 10:56:29 25° 93° (E) 11:00:19 145.935
SO-50 31 Jul 10:54:13 10:58:55 61° 123° (ESE) 11:03:48 436.795
O/OREOS (USA 219) 31 Jul 11:05:06 11:08:25 20° 48° (NE) 11:11:49 437.305
CUBEBUG 2 31 Jul 11:05:06 11:09:38 54° 100° (E) 11:14:15 437.445
SEEDS 31 Jul 11:05:45 11:09:55 51° 288° (WNW) 11:14:03 437.485
POPSAT HIP 1 31 Jul 11:06:03 11:09:30 26° 66° (ENE) 11:13:03 437.405
CUTE 1.7 + AOD 2 31 Jul 11:07:04 11:11:09 41° 290° (WNW) 11:15:11 437.475
Oscar 11 31 Jul 11:07:07 11:11:25 52° 99° (E) 11:15:41 145.826/435.025
QB50P2 31 Jul 11:13:10 11:16:52 31° 68° (ENE) 11:20:38 145.880/145.840
CANX-2 31 Jul 11:15:29 11:19:21 32° 292° (WNW) 11:23:08 2200.000
BUGSAT 1 31 Jul 11:15:54 11:18:53 21° 65° (ENE) 11:21:57 437.445
TIGRISAT 31 Jul 11:24:22 11:28:43 89° 255° (WSW) 11:33:13 435.000
ANTELSAT 31 Jul 11:25:44 11:30:05 84° 257° (WSW) 11:34:36 437.575/2403.000
HUMSAT D 31 Jul 11:25:46 11:29:12 23° 92° (E) 11:32:44 437.325/437.525
DELFI C3 31 Jul 11:27:33 11:31:36 59° 100° (E) 11:35:36 145.870
YUBILEINY 31 Jul 11:29:19 11:37:12 36° 65° (ENE) 11:45:13 435.215
50 SAT 31 Jul 11:29:35 11:30:43 11° 87° (E) 11:32:03 437.505
AAUSAT CUBESAT 2 31 Jul 11:34:52 11:38:48 37° 290° (WNW) 11:42:39 437.432
DX 1 31 Jul 11:35:38 11:38:45 20° 91° (E) 11:41:59 434.975-435.025
DUCHIFAT 1 31 Jul 11:38:26 11:42:29 52° 72° (ENE) 11:46:35 145.980
QB50P1 31 Jul 11:40:53 11:45:00 58° 73° (ENE) 11:49:10 145.935-145.965
NANOSAT C BR1 31 Jul 11:42:30 11:46:38 59° 72° (ENE) 11:50:47 145.865
VELOX 1 31 Jul 11:46:42 11:49:19 16° 89° (E) 11:52:05 145.980
DOVE 4 31 Jul 11:49:21 11:52:20 17° 297° (WNW) 11:55:16 437.250
PCSat 31 Jul 11:49:55 11:55:04 42° 313° (NW) 12:00:13 145.827
AIST 2 31 Jul 11:54:02 11:56:54 18° 247° (WSW) 11:59:38 435.215
ESTCUBE 1 31 Jul 11:54:48 11:57:06 14° 87° (E) 11:59:35 437.505/2401.250
CINEMA 3 31 Jul 12:05:10 12:08:52 24° 295° (WNW) 12:12:36 145.822/145.860
ZACube-1 31 Jul 12:06:23 12:10:51 62° 287° (WNW) 12:15:23 437.345
Cosmos 2491 31 Jul 12:08:32 12:15:03 25° 80° (E) 12:21:51 435.465 / 435.565
UNISAT 6 31 Jul 12:18:14 12:21:55 26° 267° (W) 12:25:37 437.425
POLYITAN 1 31 Jul 12:23:38 12:27:42 49° 260° (W) 12:31:50 437.675
UWE-3 31 Jul 12:28:28 12:32:32 32° 292° (WNW) 12:36:36 435.000/436.395/437.385
FUNcube-1 31 Jul 12:28:43 12:32:56 39° 291° (WNW) 12:37:10 145.935
HO-68 31 Jul 12:29:50 12:35:25 25° 306° (NW) 12:40:50 435.675
COMPASS 1 31 Jul 12:30:14 12:31:33 11° 301° (WNW) 12:32:42 437.405
AIST 1 31 Jul 12:30:53 12:34:20 24° 89° (E) 12:37:51
SO-50 31 Jul 12:35:38 12:39:51 28° 324° (NW) 12:44:07 436.795
POPSAT HIP 1 31 Jul 12:41:27 12:45:17 33° 264° (W) 12:49:06 437.405
CUBEBUG 2 31 Jul 12:42:33 12:46:00 21° 296° (WNW) 12:49:23 437.445
AISAT 31 Jul 12:42:34 12:46:56 58° 101° (E) 12:51:18 437.250
O/OREOS (USA 219) 31 Jul 12:43:46 12:48:19 64° 248° (WSW) 12:52:50 437.305
Oscar 11 31 Jul 12:44:08 12:47:15 19° 297° (WNW) 12:50:16 145.826/435.025
UKube-1 31 Jul 12:44:14 12:48:35 88° 104° (ESE) 12:52:55 .
QB50P2 31 Jul 12:49:09 12:52:46 27° 266° (W) 12:56:23 145.880/145.840
BUGSAT 1 31 Jul 12:50:18 12:54:08 40° 262° (W) 12:57:57 437.445
CUBEBUG 1 31 Jul 12:59:39 13:03:53 50° 99° (E) 13:08:06 437.445
HUMSAT D 31 Jul 13:01:03 13:05:05 38° 290° (WNW) 13:09:05 437.325/437.525
50 SAT 31 Jul 13:01:50 13:05:50 71° 286° (WNW) 13:09:47 437.505
DELFI C3 31 Jul 13:03:48 13:06:15 15° 298° (WNW) 13:08:34 145.870
DX 1 31 Jul 13:11:06 13:15:16 46° 290° (WNW) 13:19:25 434.975-435.025
DUCHIFAT 1 31 Jul 13:15:56 13:18:39 16° 270° (W) 13:21:14 145.980
QB50P1 31 Jul 13:18:48 13:21:18 15° 271° (W) 13:23:39 145.935-145.965
NANOSAT C BR1 31 Jul 13:20:29 13:22:54 14° 272° (W) 13:25:10 145.865
VELOX 1 31 Jul 13:21:57 13:26:18 59° 288° (WNW) 13:30:39 145.980
Oscar 19 31 Jul 13:22:33 13:27:05 34° 65° (ENE) 13:31:42 437.125/150
YUBILEINY 31 Jul 13:25:59 13:34:37 61° 268° (W) 13:43:13 435.215
AO-7 31 Jul 13:28:32 13:30:41 11° 32° (NNE) 13:33:10 29.400- 29.500
ESTCUBE 1 31 Jul 13:30:02 13:34:32 69° 286° (WNW) 13:38:59 437.505/2401.250
PCSat 31 Jul 13:37:20 13:40:02 13° 337° (NNW) 13:42:37 145.827
SPROUT 31 Jul 13:39:05 13:43:10 41° 98° (E) 13:47:16 437.525
TISAT 1 31 Jul 13:54:23 13:58:18 37° 97° (E) 14:02:14 437.305
Cosmos 2491 31 Jul 14:02:17 14:11:05 79° 281° (WNW) 14:19:53 435.465 / 435.565
Cosmos 2504 31 Jul 14:04:27 14:12:11 41° 69° (ENE) 14:20:15 435.465 / 435.565
AIST 1 31 Jul 14:07:50 14:11:51 35° 287° (WNW) 14:15:49
BEESAT 31 Jul 14:09:43 14:10:26 10° 84° (E) 14:11:27 436.000
Gurwin Techsat 1B 31 Jul 14:14:50 14:19:29 33° 65° (ENE) 14:24:13 435.225
AISAT 31 Jul 14:20:07 14:23:08 18° 298° (WNW) 14:26:01 437.250
SO-50 31 Jul 14:20:10 14:22:03 12° 348° (NNW) 14:23:52 436.795
UKube-1 31 Jul 14:22:16 14:24:07 12° 302° (WNW) 14:25:48 .
JAS-2 31 Jul 14:26:05 14:30:43 22° 54° (NE) 14:35:56 435.910
SWISSCUBE 31 Jul 14:28:07 14:31:18 18° 89° (E) 14:34:36 437.505
CUBEBUG 1 31 Jul 14:36:48 14:39:56 19° 297° (WNW) 14:42:57 437.445
ITAMSAT 1 31 Jul 14:41:15 14:46:13 48° 69° (ENE) 14:51:15 435.822/435.867
ITUPSAT 1 31 Jul 14:48:13 14:52:06 25° 93° (E) 14:56:03 437.325
Oscar 19 31 Jul 15:01:42 15:06:25 36° 264° (W) 15:11:08 437.125/150
CUSAT 1 31 Jul 15:06:03 15:08:44 18° 71° (ENE) 15:12:01 437.405
AO-7 31 Jul 15:13:50 15:21:10 37° 55° (NE) 15:28:37 29.400- 29.500
SPROUT 31 Jul 15:15:39 15:19:02 22° 295° (WNW) 15:22:20 437.525
HORYU 2 31 Jul 15:20:48 15:23:33 17° 61° (ENE) 15:26:27 437.375
YUBILEINY 31 Jul 15:26:10 15:29:44 13° 288° (WNW) 15:32:42 435.215
TISAT 1 31 Jul 15:30:30 15:33:55 24° 295° (WNW) 15:37:16 437.305
BEESAT 31 Jul 15:44:20 15:49:09 83° 102° (ESE) 15:53:56 436.000
Gurwin Techsat 1B 31 Jul 15:54:24 15:59:24 40° 263° (W) 16:04:23 435.225
Cosmos 2504 31 Jul 15:56:37 16:04:39 52° 270° (W) 16:12:51 435.465 / 435.565
SO-50 31 Jul 16:03:00 16:04:45 12° 12° (NNE) 16:06:34 436.795
Cosmos 2491 31 Jul 16:03:24 16:09:42 20° 306° (NW) 16:15:40 435.465 / 435.565
SWISSCUBE 31 Jul 16:04:53 16:09:36 60° 289° (WNW) 16:14:17 437.505
JAS-2 31 Jul 16:08:45 16:14:54 85° 256° (WSW) 16:21:58 435.910
GONETS M04 31 Jul 16:11:28 16:16:40 17° 51° (NE) 16:22:15
ITAMSAT 1 31 Jul 16:21:38 16:25:59 26° 267° (W) 16:30:16 435.822/435.867
DANDE 31 Jul 16:22:19 16:25:45 61° 78° (ENE) 16:30:17 436.750
STARS 31 Jul 16:23:31 16:27:07 24° 93° (E) 16:30:46 437.465
ITUPSAT 1 31 Jul 16:25:39 16:30:12 43° 291° (WNW) 16:34:41 437.325
CUSAT 1 31 Jul 16:47:32 16:51:18 46° 261° (W) 16:56:13 437.405
KKS-1 31 Jul 16:48:02 16:52:30 68° 102° (ESE) 16:56:57 437.445
HORYU 2 31 Jul 16:55:19 16:59:44 65° 258° (WSW) 17:04:13 437.375
AO-7 31 Jul 17:05:17 17:13:36 64° 256° (WSW) 17:21:56 29.400- 29.500
PCSat 31 Jul 17:08:25 17:11:51 17° 29° (NNE) 17:15:24 145.827
BEESAT 31 Jul 17:23:40 17:26:24 15° 302° (WNW) 17:28:59 436.000
MOZHAYETS 4 31 Jul 17:33:54 17:37:56 29° 94° (E) 17:41:58
SO-50 31 Jul 17:42:44 17:46:59 27° 36° (NE) 17:51:13 436.795
CUTE-I 31 Jul 17:44:08 17:48:02 21° 60° (ENE) 17:52:04 437.470
Cosmos 2504 31 Jul 17:53:54 17:55:10 10° 289° (WNW) 17:55:48 435.465 / 435.565
JAS-2 31 Jul 17:57:33 18:01:23 16° 280° (W) 18:05:09 435.910
STARS 31 Jul 17:59:34 18:03:41 38° 291° (WNW) 18:07:47 437.465
GONETS M04 31 Jul 18:06:53 18:15:36 69° 77° (ENE) 18:24:19
DANDE 31 Jul 18:07:46 18:08:49 11° 266° (W) 18:09:42 436.750
Cosmos 2499 31 Jul 18:19:13 18:26:03 26° 60° (ENE) 18:33:16 435.465 / 435.565
KKS-1 31 Jul 18:25:54 18:28:40 16° 299° (WNW) 18:31:18 437.445
Cubesat XI-IV 31 Jul 18:26:30 18:31:34 45° 68° (ENE) 18:36:42 437.490
PCSat 31 Jul 18:51:03 18:56:28 61° 52° (NE) 19:01:50 145.827
AO-7 31 Jul 19:04:23 19:08:21 13° 279° (W) 19:11:44 29.400- 29.500
MOZHAYETS 4 31 Jul 19:10:59 19:15:13 35° 292° (WNW) 19:19:23
CUTE-I 31 Jul 19:22:21 19:27:41 66° 258° (WSW) 19:33:03 437.470
SO-50 31 Jul 19:23:00 19:27:57 66° 237° (WSW) 19:32:46 436.795
CUBESAT XI-V 31 Jul 19:26:05 19:30:20 36° 96° (E) 19:34:34 437.345
HO-68 31 Jul 19:27:48 19:32:45 21° 52° (NE) 19:37:55 435.675
BRITE-PL 31 Jul 19:37:51 19:41:16 24° 67° (ENE) 19:44:41 437.365/2234.400
STRAND 1 31 Jul 19:42:08 19:45:27 18° 89° (E) 19:48:57 437.568
DOVE 4 31 Jul 19:45:34 19:46:33 11° 59° (ENE) 19:47:44 437.250
GOMX 1 31 Jul 19:52:04 19:55:04 20° 65° (ENE) 19:58:08 467.674
GONETS M04 31 Jul 20:04:36 20:11:51 30° 278° (W) 20:18:53
Cubesat XI-IV 31 Jul 20:07:13 20:11:53 29° 267° (W) 20:16:28 437.490
Cosmos 2499 31 Jul 20:11:40 20:20:25 86° 262° (W) 20:29:19 435.465 / 435.565
COMPASS 1 31 Jul 20:13:44 20:15:13 12° 60° (ENE) 20:16:53 437.405
VERMONT LUNAR 31 Jul 20:26:10 20:28:23 18° 165° (SSE) 20:30:38 437.305
SEEDS 31 Jul 20:26:10 20:29:08 19° 64° (ENE) 20:32:13 437.485
CUTE 1.7 + AOD 2 31 Jul 20:27:40 20:31:03 24° 66° (ENE) 20:34:32 437.475
PCSat 31 Jul 20:35:11 20:39:31 24° 251° (WSW) 20:43:43 145.827
CANX-2 31 Jul 20:35:34 20:39:17 30° 68° (ENE) 20:43:06 2200.000
RS-15 31 Jul 20:40:34 20:45:27 15° 97° (E) 20:51:14 29.354- 29.394
PRISM 31 Jul 20:46:16 20:50:19 54° 101° (E) 20:54:20 437.425
AAUSAT CUBESAT 2 31 Jul 20:53:30 20:56:51 24° 66° (ENE) 21:00:17 437.432
CUBESAT XI-V 31 Jul 21:03:43 21:07:41 28° 294° (WNW) 21:11:34 437.345
HO-68 31 Jul 21:12:28 21:19:37 84° 72° (ENE) 21:26:50 435.675
BRITE-PL 31 Jul 21:15:41 21:19:44 36° 263° (W) 21:23:37 437.365/2234.400
DOVE 4 31 Jul 21:19:34 21:23:44 88° 256° (WSW) 21:27:56 437.250
STRAND 1 31 Jul 21:20:08 21:25:13 67° 289° (WNW) 21:30:17 437.568
GOMX 1 31 Jul 21:28:58 21:33:01 43° 262° (W) 21:36:59 467.674
ZACube-1 31 Jul 21:30:41 21:33:32 18° 63° (ENE) 21:36:31 437.345
CINEMA 3 31 Jul 21:32:33 21:36:37 57° 72° (ENE) 21:40:49 145.822/145.860
COMPASS 1 31 Jul 21:46:03 21:50:17 87° 257° (WSW) 21:54:33 437.405
FUNcube-1 31 Jul 21:51:45 21:55:18 27° 66° (ENE) 21:58:59 145.935
UWE-3 31 Jul 21:52:17 21:56:07 35° 69° (ENE) 22:00:05 435.000/436.395/437.385
SEEDS 31 Jul 22:00:29 22:04:37 49° 261° (W) 22:08:47 437.485
ISS 31 Jul 22:00:34 22:02:53 18° 138° (SE) 22:05:14 145.825
VERMONT LUNAR 31 Jul 22:01:56 22:04:35 24° 182° (S) 22:07:13 437.305
CUTE 1.7 + AOD 2 31 Jul 22:02:46 22:06:47 39° 263° (W) 22:10:50 437.475
Oscar 11 31 Jul 22:04:40 22:08:55 60° 73° (ENE) 22:13:14 145.826/435.025
Cosmos 2499 31 Jul 22:06:23 22:12:32 21° 282° (WNW) 22:18:24 435.465 / 435.565
CUBEBUG 2 31 Jul 22:06:30 22:10:38 62° 73° (ENE) 22:14:54 437.445
UKube-1 31 Jul 22:08:16 22:10:31 14° 60° (ENE) 22:12:55 .
PHONESAT 2.4 31 Jul 22:08:37 22:11:08 19° 164° (SSE) 22:13:42 2401.200-2431.200
AISAT 31 Jul 22:10:50 22:11:38 11° 57° (ENE) 22:12:39 437.250
CANX-2 31 Jul 22:11:26 22:15:12 29° 266° (W) 22:18:58 2200.000
Cosmos 2491 31 Jul 22:13:38 22:18:14 15° 49° (NE) 22:23:16 435.465 / 435.565
AUBIESAT-1 31 Jul 22:14:15 22:15:24 11° 89° (E) 22:16:49 437.475
50 SAT 31 Jul 22:17:11 22:18:07 11° 60° (ENE) 22:19:15 437.505
DELFI C3 31 Jul 22:17:20 22:21:18 55° 73° (ENE) 22:25:20 145.870
HUMSAT D 31 Jul 22:20:39 22:23:59 24° 66° (ENE) 22:27:27 437.325/437.525
PRISM 31 Jul 22:22:39 22:25:24 17° 298° (WNW) 22:28:00 437.425
AAUSAT CUBESAT 2 31 Jul 22:28:22 22:32:17 37° 263° (W) 22:36:13 437.432
DX 1 31 Jul 22:34:06 22:37:41 26° 66° (ENE) 22:41:21 434.975-435.025
RS-15 31 Jul 22:44:58 22:55:38 64° 118° (ESE) 23:06:46 29.354- 29.394
VELOX 1 31 Jul 22:47:08 22:50:28 22° 64° (ENE) 22:53:54 145.980
ESTCUBE 1 31 Jul 22:57:10 23:00:28 21° 63° (ENE) 23:03:51 437.505/2401.250
STRAND 1 31 Jul 23:01:50 23:03:35 11° 306° (NW) 23:05:05 437.568
HO-68 31 Jul 23:03:05 23:08:19 21° 272° (W) 23:13:19 435.675
ZACube-1 31 Jul 23:05:25 23:09:31 52° 261° (W) 23:13:45 437.345
CINEMA 3 31 Jul 23:11:54 23:14:19 15° 272° (W) 23:16:36 145.822/145.860
TIGRISAT 31 Jul 23:13:49 23:16:44 17° 88° (E) 23:19:50 435.000
ANTELSAT 31 Jul 23:15:17 23:18:24 18° 89° (E) 23:21:41 437.575/2403.000
M-CUBED/EXP-1 PRIME 31 Jul 23:16:22 23:21:03 50° 104° (ESE) 23:25:39 437.505
FUNcube-1 31 Jul 23:27:46 23:31:34 32° 265° (W) 23:35:24 145.935
UWE-3 31 Jul 23:29:19 23:32:47 24° 268° (W) 23:36:15 435.000/436.395/437.385
ISS 31 Jul 23:35:44 23:38:59 85° 331° (NNW) 23:42:16 145.825
VERMONT LUNAR 31 Jul 23:38:48 23:40:45 15° 198° (SSW) 23:42:39 437.305
UKube-1 31 Jul 23:41:49 23:46:08 74° 257° (WSW) 23:50:28 .
Oscar 11 31 Jul 23:42:54 23:45:34 15° 272° (W) 23:48:05 145.826/435.025
AISAT 31 Jul 23:43:07 23:47:30 77° 75° (ENE) 23:51:56 437.250
PHONESAT 2.4 31 Jul 23:45:32 23:48:33 27° 180° (S) 23:51:35 2401.200-2431.200
CUBEBUG 2 31 Jul 23:45:35 23:47:52 14° 273° (W) 23:50:01 437.445
AUBIESAT-1 31 Jul 23:46:07 23:50:55 81° 109° (ESE) 23:55:36 437.475
50 SAT 31 Jul 23:48:13 23:52:07 84° 255° (WSW) 23:56:05 437.505
DELFI C3 31 Jul 23:54:20 23:56:47 15° 271° (W) 23:59:04 145.870
HUMSAT D 31 Jul 23:55:45 23:59:35 35° 264° (W) 00:03:28 437.325/437.525
CUBEBUG 1 31 Jul 23:58:33 00:02:52 62° 72° (ENE) 00:07:10 437.445
UNISAT 6 01 Aug 00:05:48 00:10:23 52° 100° (E) 00:15:00 437.425
POLYITAN 1 01 Aug 00:06:15 00:09:30 21° 92° (E) 00:12:51 437.675
Cosmos 2491 01 Aug 00:08:48 00:17:27 62° 75° (ENE) 00:26:05 435.465 / 435.565
DX 1 01 Aug 00:09:49 00:13:50 35° 263° (W) 00:17:50 434.975-435.025
AIST 1 01 Aug 00:11:12 00:15:29 78° 80° (E) 00:19:44
VELOX 1 01 Aug 00:22:32 00:26:47 45° 261° (W) 00:31:01 145.980
POPSAT HIP 1 01 Aug 00:23:07 00:26:53 30° 95° (E) 00:30:42 437.405
BEESAT 2 01 Aug 00:23:19 00:26:35 24° 115° (ESE) 00:29:56 435.950
BUGSAT 1 01 Aug 00:29:29 00:32:38 22° 93° (E) 00:35:53 437.445
QB50P2 01 Aug 00:30:34 00:34:32 37° 97° (E) 00:38:32 145.880/145.840
ESTCUBE 1 01 Aug 00:32:34 00:37:01 51° 260° (W) 00:41:27 437.505/2401.250
YUBILEINY 01 Aug 00:34:57 00:42:26 35° 84° (E) 00:50:09 435.215
SPROUT 01 Aug 00:36:04 00:40:09 47° 71° (ENE) 00:44:18 437.525
TIGRISAT 01 Aug 00:49:18 00:53:56 63° 287° (WNW) 00:58:35 435.000
TISAT 1 01 Aug 00:49:21 00:53:16 41° 70° (ENE) 00:57:15 437.305
ANTELSAT 01 Aug 00:50:58 00:55:36 59° 288° (WNW) 01:00:14 437.575/2403.000
M-CUBED/EXP-1 PRIME 01 Aug 00:51:33 00:55:32 26° 302° (WNW) 00:59:25 437.505
DUCHIFAT 1 01 Aug 00:55:23 00:59:36 64° 101° (E) 01:03:49 145.980
RS-15 01 Aug 00:57:52 01:08:35 51° 325° (NW) 01:19:43 29.354- 29.394
QB50P1 01 Aug 00:58:23 01:02:38 72° 101° (ESE) 01:06:54 145.935-145.965
NANOSAT C BR1 01 Aug 00:59:44 01:04:00 73° 102° (ESE) 01:08:15 145.865
BEESAT 3 01 Aug 01:02:43 01:06:46 72° 125° (SE) 01:10:53 437.485
ISS 01 Aug 01:12:37 01:15:41 37° 355° (N) 01:18:46 145.825
BEESAT 01 Aug 01:17:49 01:21:08 19° 61° (ENE) 01:24:36 436.000
AUBIESAT-1 01 Aug 01:21:56 01:25:02 17° 306° (NW) 01:27:59 437.475
AISAT 01 Aug 01:22:49 01:24:43 12° 273° (W) 01:26:24 437.250
PHONESAT 2.4 01 Aug 01:23:26 01:25:58 19° 197° (SSW) 01:28:28 2401.200-2431.200
CUBEBUG 1 01 Aug 01:37:08 01:39:41 15° 272° (W) 01:42:04 437.445
SWISSCUBE 01 Aug 01:37:21 01:41:29 30° 66° (ENE) 01:45:42 437.505
POLYITAN 1 01 Aug 01:41:33 01:45:36 41° 290° (WNW) 01:49:37 437.675
UNISAT 6 01 Aug 01:43:16 01:46:51 21° 296° (WNW) 01:50:20 437.425
AIST 1 01 Aug 01:51:31 01:52:33 11° 277° (W) 01:53:20
AIST 2 01 Aug 01:53:16 01:57:18 44° 121° (ESE) 02:01:24 435.215
ITUPSAT 1 01 Aug 01:57:46 02:02:16 41° 68° (ENE) 02:06:48 437.325
POPSAT HIP 1 01 Aug 01:59:00 02:02:43 29° 293° (WNW) 02:06:23 437.405
BEESAT 2 01 Aug 02:00:27 02:04:25 44° 314° (NW) 02:08:24 435.950
BUGSAT 1 01 Aug 02:04:29 02:08:15 36° 291° (WNW) 02:12:00 437.445
Cosmos 2491 01 Aug 02:06:20 02:13:53 33° 276° (W) 02:21:13 435.465 / 435.565
QB50P2 01 Aug 02:06:47 02:10:16 24° 294° (WNW) 02:13:41 145.880/145.840
SPROUT 01 Aug 02:13:29 02:16:32 18° 269° (W) 02:19:30 437.525
KKS-1 01 Aug 02:15:43 02:17:27 12° 58° (ENE) 02:19:23 437.445
TISAT 1 01 Aug 02:26:05 02:29:15 20° 268° (W) 02:32:20 437.305
YUBILEINY 01 Aug 02:30:19 02:38:54 59° 286° (WNW) 02:47:34 435.215
DUCHIFAT 1 01 Aug 02:32:23 02:34:59 16° 298° (WNW) 02:37:26 145.980
QB50P1 01 Aug 02:35:41 02:38:01 14° 299° (WNW) 02:40:12 145.935-145.965
NANOSAT C BR1 01 Aug 02:37:03 02:39:20 14° 299° (WNW) 02:41:28 145.865
Cosmos 2504 01 Aug 02:40:39 02:46:04 24° 81° (E) 02:52:00 435.465 / 435.565
BEESAT 3 01 Aug 02:42:03 02:45:10 20° 325° (NW) 02:48:13 437.485
ISS 01 Aug 02:49:20 02:52:31 49° 15° (NNE) 02:55:43 145.825
ITAMSAT 1 01 Aug 02:52:44 02:54:52 13° 85° (E) 02:57:16 435.822/435.867
BEESAT 01 Aug 02:53:50 02:58:35 62° 259° (WSW) 03:03:22 436.000
O/OREOS (USA 219) 01 Aug 02:58:50 03:03:19 83° 114° (ESE) 03:07:52 437.305
Oscar 19 01 Aug 03:09:21 03:14:30 63° 101° (E) 03:19:40 437.125/150
RS-15 01 Aug 03:14:29 03:24:20 33° 358° (N) 03:34:35 29.354- 29.394
SWISSCUBE 01 Aug 03:14:48 03:19:16 37° 263° (W) 03:23:43 437.505
JAS-2 01 Aug 03:15:49 03:20:12 16° 81° (E) 03:25:01 435.910
STARS 01 Aug 03:23:18 03:27:09 32° 67° (ENE) 03:31:05 437.465
AIST 2 01 Aug 03:32:18 03:36:02 28° 320° (NW) 03:39:46 435.215
ITUPSAT 1 01 Aug 03:36:13 03:40:18 26° 266° (W) 03:44:20 437.325
BEESAT 2 01 Aug 03:41:56 03:43:31 12° 336° (NNW) 03:45:01 435.950
KKS-1 01 Aug 03:49:02 03:53:28 90° 252° (WSW) 03:57:56 437.445
Gurwin Techsat 1B 01 Aug 04:06:52 04:12:10 65° 101° (E) 04:17:28 435.225
ISS 01 Aug 04:25:50 04:28:57 42° 214° (SW) 04:32:03 145.825
ITAMSAT 1 01 Aug 04:30:00 04:35:14 89° 91° (E) 04:40:25 435.822/435.867
Cosmos 2504 01 Aug 04:30:21 04:37:31 71° 282° (WNW) 04:45:16 435.465 / 435.565
YUBILEINY 01 Aug 04:33:28 04:38:14 15° 313° (NW) 04:42:33 435.215
MOZHAYETS 4 01 Aug 04:38:39 04:42:56 39° 69° (ENE) 04:47:18
O/OREOS (USA 219) 01 Aug 04:40:35 04:43:25 16° 315° (NW) 04:46:10 437.305
HORYU 2 01 Aug 04:44:06 04:47:19 20° 91° (E) 04:50:39 437.375
Oscar 19 01 Aug 04:49:35 04:53:28 21° 299° (WNW) 04:57:15 437.125/150
JAS-2 01 Aug 04:58:49 05:06:39 73° 102° (ESE) 05:14:28 435.910
STARS 01 Aug 04:59:47 05:03:37 29° 265° (W) 05:07:25 437.465
AO-7 01 Aug 05:03:27 05:11:00 38° 96° (E) 05:18:37 29.400- 29.500
GONETS M04 01 Aug 05:20:24 05:24:35 15° 74° (ENE) 05:29:18
RS-15 01 Aug 05:29:28 05:40:24 46° 30° (NNE) 05:51:53 29.354- 29.394
KKS-1 01 Aug 05:30:11 05:30:52 10° 275° (W) 05:31:17 437.445
DANDE 01 Aug 05:38:54 05:41:59 55° 99° (E) 05:44:38 436.750
Gurwin Techsat 1B 01 Aug 05:47:44 05:51:44 21° 300° (WNW) 05:55:36 435.225
CUSAT 1 01 Aug 06:00:07 06:02:40 32° 285° (WNW) 06:05:04 437.405
ITAMSAT 1 01 Aug 06:11:00 06:14:06 16° 303° (WNW) 06:17:01 435.822/435.867
MOZHAYETS 4 01 Aug 06:16:22 06:20:18 26° 268° (W) 06:24:10
HORYU 2 01 Aug 06:19:53 06:24:16 50° 290° (WNW) 06:28:37 437.375
Cosmos 2504 01 Aug 06:27:09 06:31:36 16° 308° (NW) 06:35:53 435.465 / 435.565
CUBESAT XI-V 01 Aug 06:32:13 06:36:45 50° 71° (ENE) 06:41:16 437.345
Cubesat XI-IV 01 Aug 06:42:13 06:44:37 13° 85° (E) 06:47:16 437.490
JAS-2 01 Aug 06:44:31 06:51:08 31° 301° (WNW) 06:57:40 435.910
AO-7 01 Aug 06:56:04 07:04:14 58° 297° (WNW) 07:12:17 29.400- 29.500
STRAND 1 01 Aug 07:00:35 07:05:13 36° 66° (ENE) 07:09:55 437.568
BEESAT 2 01 Aug 07:02:12 07:03:27 11° 23° (NNE) 07:04:47 435.950
Cosmos 2499 01 Aug 07:04:00 07:07:27 14° 74° (ENE) 07:11:29 435.465 / 435.565
GONETS M04 01 Aug 07:11:21 07:19:58 71° 95° (E) 07:28:37
CUTE-I 01 Aug 07:36:23 07:41:20 39° 96° (E) 07:46:18 437.470
PRISM 01 Aug 07:38:54 07:43:02 61° 72° (ENE) 07:47:10 437.425
BEESAT 3 01 Aug 07:41:07 07:44:10 20° 35° (NE) 07:47:14 437.485
RS-15 01 Aug 07:42:19 07:54:03 79° 237° (WSW) 08:06:12 29.354- 29.394
CUBESAT XI-V 01 Aug 08:10:56 08:14:29 21° 270° (W) 08:17:56 437.345
Cubesat XI-IV 01 Aug 08:20:13 08:25:36 89° 83° (E) 08:30:56 437.490
AIST 2 01 Aug 08:34:16 08:36:58 16° 30° (NNE) 08:39:43 435.215
M-CUBED/EXP-1 PRIME 01 Aug 08:34:48 08:37:05 15° 52° (NE) 08:39:34 437.505
BEESAT 2 01 Aug 08:38:41 08:42:35 42° 45° (NE) 08:46:28 435.950
HO-68 01 Aug 08:39:26 08:42:07 13° 82° (E) 08:45:18 435.675
STRAND 1 01 Aug 08:39:45 08:44:27 34° 264° (W) 08:49:06 437.568
AO-7 01 Aug 08:50:21 08:55:28 18° 319° (NW) 09:00:17 29.400- 29.500
Cosmos 2499 01 Aug 08:51:43 08:59:06 72° 95° (E) 09:07:11 435.465 / 435.565
AUBIESAT-1 01 Aug 09:02:58 09:06:11 22° 57° (ENE) 09:09:39 437.475
GONETS M04 01 Aug 09:10:11 09:17:42 30° 298° (WNW) 09:25:04
DOVE 4 01 Aug 09:15:16 09:18:38 20° 91° (E) 09:22:14 437.250
BRITE-PL 01 Aug 09:15:54 09:20:07 48° 99° (E) 09:24:37 437.365/2234.400
PRISM 01 Aug 09:16:33 09:18:54 14° 271° (W) 09:21:07 437.425
CUTE-I 01 Aug 09:16:37 09:21:22 33° 295° (WNW) 09:26:03 437.470
BEESAT 3 01 Aug 09:18:29 09:22:33 69° 235° (SW) 09:26:31 437.485
CINEMA 3 01 Aug 09:25:30 09:27:18 12° 86° (E) 09:29:22 145.822/145.860
GOMX 1 01 Aug 09:26:28 09:30:40 39° 97° (E) 09:35:08 467.674
COMPASS 1 01 Aug 09:28:06 09:29:52 13° 86° (E) 09:31:49 437.405
PCSat 01 Aug 09:36:33 09:41:02 28° 111° (ESE) 09:45:39 145.827
SO-50 01 Aug 09:41:13 09:44:40 21° 113° (ESE) 09:48:20 436.795
SEEDS 01 Aug 09:42:04 09:45:24 22° 92° (E) 09:48:46 437.485
CUTE 1.7 + AOD 2 01 Aug 09:44:47 09:48:32 29° 94° (E) 09:52:18 437.475
